Regional Weather Roundup
Issued by NWS

Home | Current Version | Previous Version | Graphics & Text | Print | Product List | Glossary On
Versions: 1 2 3 4 5 6 7 8 9 10 11 12 13 14 15 16 17 18 19 20 21 22 23 24 25 26 27 28 29 30 31 32 33 34 35 36 37 38 39 40 41 42 43 44 45 46 47 48 49 50
000
ASUS45 KBOI 152010
RWRID
WEATHER ROUNDUP FOR IDAHO
NATIONAL WEATHER SERVICE BOISE ID
200 PM MDT MON SEP 15 2014

NOTE: "FAIR" INDICATES FEW OR NO CLOUDS BELOW 12000 FEET
WITH NO SIGNIFICANT WEATHER AND/OR OBSTRUCTIONS TO VISIBILITY

IDZ012-014-152100-
SOUTHWEST IDAHO


CITY           SKY/WX    TMP DP  RH WIND       PRES   REMARKS
BOISE          SUNNY     86  38  18 NW8       30.01F
CALDWELL       SUNNY     81  43  26 E3        30.02F
MOUNTAIN HOME  SUNNY     86  30  13 VRB6      30.01F
$$

IDZ016-017-152100-
SOUTHCENTRAL IDAHO


CITY           SKY/WX    TMP DP  RH WIND       PRES   REMARKS
BURLEY         SUNNY     82  36  19 CALM      30.09F
JEROME         SUNNY     83  43  24 N3        30.10F
TWIN FALLS     SUNNY     84  39  20 NE5       30.10F
$$

IDZ019>023-152100-
SOUTHEAST IDAHO


CITY           SKY/WX    TMP DP  RH WIND       PRES   REMARKS
IDAHO FALLS    MOSUNNY   81  34  18 VRB5      30.15F
POCATELLO      MOSUNNY   82  35  18 VRB3      30.13F
REXBURG          N/A     79  34  19 W9        30.14F
$$

IDZ006-010-011-018-031-032-152100-
CENTRAL IDAHO MOUNTAINS


CITY           SKY/WX    TMP DP  RH WIND       PRES   REMARKS
MCCALL         MOSUNNY   78  31  17 S7        30.13F
HAILEY         MOSUNNY   81  37  21 S7G18     30.17F
STANLEY          N/A     76  24  14 VRB6      30.24F
SALMON         SUNNY     70  30  23 CALM      30.11F
CHALLIS        SUNNY     75  29  18 VRB5      30.15F
$$

IDZ002-004-006-007-026-152100-
NORTHERN IDAHO


CITY           SKY/WX    TMP DP  RH WIND       PRES   REMARKS
LEWISTON       SUNNY     76  36  23 VRB3      29.96F
LOWELL           N/A     75  38  26 CALM      29.99F
COEUR D`ALENE  SUNNY     77  37  24 NE3       30.00F
MULLAN PASS    SUNNY     67  28  23 CALM      30.18S
$$


USA.gov is the U.S. government's official web portal to all federal, state and local government web resources and services.